CAPE
1398 1235 1301 936 933 1081 1095 945 878 812 775 614 514 410 407 484 432 449 503 506 464 651 750 738 521 443 459 557 607 601 1195 1189 1067 1023 1022 1026 1025 1048 1102 1012 1041 771
1560 1540 1360 935 926 1165 1134 1032 894 853 832 625 508 441 397 480 504 427 346 522 449 441 455 378 373 372 397 239 624 999 1358 1415 1283 1022 1275 1256 1347 1445 1433 1260 1291 981
2011 1982 1722 1312 1229 1232 1106 987 886 755 763 726 525 434 452 518 500 411 360 480 368 373 364 344 330 320 315 309 597 1240 1413 1661 1590 1388 1486 1402 1672 1492 1477 1475 1189 1247
1680 1856 1515 1068 1096 1160 1065 992 834 778 732 677 587 438 398 374 342 361 334 236 368 398 351 333 300 259 222 278 489 443 742 1034 1090 1372 1437 1386 1415 1273 1404 1409 1192 1004
1365 1619 1492 1015 947 1002 992 991 860 840 721 625 630 542 245 256 231 302 252 171 222 329 323 295 260 245 268 298 269 239 428 405 864 920 756 987 1109 1235 1299 1367 1382 1116
1182 1458 1424 1068 1095 1127 968 905 734 726 681 688 698 463 318 215 228 268 206 144 114 245 243 217 164 141 248 304 283 226 245 222 448 495 472 752 629 949 626 952 1462 1341
1062 1344 1343 1198 1097 1035 963 816 672 648 738 677 583 608 428 278 160 258 173 157 144 125 106 132 76 79 215 255 210 206 143 70 99 160 120 111 125 503 348 678 890 1129
956 1122 1384 1426 1167 939 840 724 792 752 654 585 593 587 396 202 174 194 142 79 15 90 78 48 1 0 127 241 141 152 114 50 49 49 69 70 119 90 136 396 1097 1176
1004 1101 1231 1439 1352 999 688 786 721 631 588 569 650 523 414 184 135 126 70 20 3 84 77 0 0 0 28 122 148 147 121 126 54 29 22 57 115 71 45 127 501 1220
910 1074 1346 1495 1503 980 597 733 678 577 555 554 484 375 240 117 69 97 28 0 0 10 1 0 0 0 0 0 16 47 73 81 14 0 8 10 0 0 0 101 322 1095
1007 1265 1121 905 1281 865 901 834 736 608 695 514 412 285 111 47 51 29 3 0 0 0 0 0 0 0 0 0 0 5 11 42 22 0 0 0 0 0 0 33 202 1024
957 935 745 796 816 1184 1230 970 707 688 554 382 196 47 3 0 0 0 0 0 0 0 0 0 0 0 0 0 0 0 0 1 16 7 0 0 0 0 0 1 72 291
748 749 836 869 749 913 990 698 546 536 370 156 7 0 0 0 0 0 0 0 0 0 0 0 0 0 0 0 0 0 0 0 1 7 0 0 0 0 0 0 0 153
359 796 812 652 669 581 555 565 441 253 91 15 0 0 0 0 0 0 0 0 0 0 0 0 0 0 0 0 0 0 0 0 0 0 2 3 2 0 0 0 0 15
380 453 446 499 471 405 292 256 176 65 1 0 0 0 0 0 0 0 0 0 0 0 0 0 0 0 0 0 0 0 0 0 0 0 0 2 6 3 0 0 0 0
239 245 278 230 233 286 342 253 207 195 183 99 13 5 5 0 0 0 0 0 0 0 0 76 31 0 0 0 0 0 0 0 0 0 0 0 0 1 0 0 0 6
274 286 50 53 30 92 135 60 88 214 212 181 197 229 261 182 71 6 3 7 34 135 19 0 0 0 0 0 0 0 8 0 0 0 0 0 0 2 0 0 2 7
98 62 0 0 0 0 0 4 9 6 4 0 0 0 2 178 389 321 382 253 67 10 0 0 0 0 0 0 0 0 0 0 0 0 4 11 23 21 17 18 24 39
96 60 18 3 0 0 0 0 0 1 0 0 0 0 3 30 102 167 50 4 0 0 0 0 0 0 0 0 0 0 0 66 3 0 0 2 5 8 42 52 60 54
0 1 3 13 14 2 0 0 0 0 1 0 0 0 2 0 13 16 2 0 0 0 0 0 0 0 0 0 0 0 0 131 176 70 58 21 6 26 21 21 23 15
21 0 1 8 1 0 0 0 0 0 0 0 4 5 3 3 0 0 0 0 0 0 0 0 0 0 0 0 0 0 0 17 625 766 321 424 472 572 410 350 289 183
0 0 0 0 0 0 2 3 0 0 0 3 0 0 0 2 0 1 2 1 0 0 0 0 0 0 0 0 0 0 0 43 149 322 421 439 657 826 779 705 712 753
1 3 4 1 0 0 0 2 5 0 0 0 3 3 6 11 10 3 4 2 0 0 0 0 0 0 0 0 0 0 0 0 2 6 45 127 292 206 419 498 697 776
0 0 0 1 4 3 4 5 1 0 0 1 0 0 0 0 0 0 1 1 3 0 0 1 0 0 0 0 0 0 0 6 6 0 9 0 20 24 58 109 240 0
4 6 6 6 4 3 2 3 4 5 4 2 0 0 0 0 0 0 0 2 3 1 2 3 1 2 0 0 0 0 0 0 0 0 0 0 0 0 0 0 84 43
0 5 11 10 9 0 0 2 0 2 0 0 0 0 0 0 0 0 2 1 0 0 0 0 0 0 0 0 0 0 0 0 0 0 0 0 0 0 0 0 0 12
Wind_Speed
25 26 26 27 27 26 25 24 24 23 22 23 23 22 21 21 21 20 20 19 20 21 21 21 20 18 17 17 15 14 15 16 15 14 13 12 11 13 12 10 11 7
24 25 26 26 27 26 25 24 24 22 21 22 22 22 22 21 20 20 19 20 20 21 21 21 20 19 17 17 16 15 14 15 14 13 13 10 10 11 10 10 9 8
25 25 26 26 26 26 25 24 23 21 22 22 23 22 23 21 19 19 19 18 19 20 20 20 20 19 18 17 16 15 14 14 14 14 12 11 10 10 11 12 10 9
23 24 25 25 25 24 23 23 21 20 22 22 22 23 22 20 19 18 18 17 18 17 19 20 20 19 18 17 15 15 15 13 13 13 12 11 10 10 12 12 12 11
22 21 22 23 23 22 21 20 20 20 20 21 22 22 21 20 18 18 17 16 16 17 19 20 20 20 18 15 14 15 15 14 13 12 12 11 10 10 11 11 12 11
19 20 19 20 22 23 20 19 20 19 19 18 19 19 19 18 17 16 15 15 15 17 18 19 18 18 17 17 15 15 16 15 13 12 12 12 12 11 10 11 12 11
19 19 19 21 23 22 19 18 18 17 16 15 17 17 17 17 16 15 14 14 15 16 18 19 nan nan 17 16 17 17 17 nan nan 14 15 14 14 13 12 12 12 12
20 20 20 23 22 20 17 17 17 15 15 15 16 17 16 17 18 17 16 nan nan nan nan nan nan nan 17 16 18 18 18 nan nan nan nan nan 15 nan 15 13 13 14
22 21 23 24 21 18 17 17 16 16 15 15 16 16 17 18 20 19 nan nan nan nan nan nan nan nan nan 18 18 18 18 18 nan nan nan nan 18 nan nan 16 16 16
25 23 23 24 21 19 17 17 16 16 15 15 16 15 17 18 nan nan nan nan nan nan nan nan nan nan nan nan nan nan nan nan nan nan nan nan nan nan nan 18 19 20
26 26 27 28 25 19 17 17 17 17 16 16 16 16 17 nan nan nan nan nan nan nan nan nan nan nan nan nan nan nan nan nan nan nan nan nan nan nan nan nan 22 22
28 28 25 20 23 22 18 17 17 17 17 17 17 nan nan nan nan nan nan nan nan nan nan nan nan nan nan nan nan nan nan nan nan nan nan nan nan nan nan nan nan 24
25 25 26 27 26 23 19 18 19 20 20 21 nan nan nan nan nan nan nan nan nan nan nan nan nan nan nan nan nan nan nan nan nan nan nan nan nan nan nan nan nan 26
21 23 26 26 25 23 20 21 21 22 nan nan nan nan nan nan nan nan nan nan nan nan nan nan nan nan nan nan nan nan nan nan nan nan nan nan nan nan nan nan nan nan
22 24 26 29 27 25 25 24 23 nan nan nan nan nan nan nan nan nan nan nan nan nan nan nan nan nan nan nan nan nan nan nan nan nan nan nan nan nan nan nan nan nan
27 28 30 29 28 27 29 27 26 25 25 nan nan nan nan nan nan nan nan nan nan nan nan nan nan nan nan nan nan nan nan nan nan nan nan nan nan nan nan nan nan nan
29 29 nan nan nan nan 31 nan nan 27 26 27 28 28 28 27 nan nan nan nan nan 31 nan nan nan nan nan nan nan nan nan nan nan nan nan nan nan nan nan nan nan nan
nan nan nan nan nan nan nan nan nan nan nan nan nan nan nan 29 29 30 30 31 nan nan nan nan nan nan nan nan nan nan nan nan nan nan nan nan nan nan nan nan nan nan
nan nan nan nan nan nan nan nan nan nan nan nan nan nan nan nan 32 32 nan nan nan nan nan nan nan nan nan nan nan nan nan nan nan nan nan nan nan nan nan nan nan nan
nan nan nan nan nan nan nan nan nan nan nan nan nan nan nan nan nan nan nan nan nan nan nan nan nan nan nan nan nan nan nan 23 28 nan nan nan nan nan nan nan nan nan
nan nan nan nan nan nan nan nan nan nan nan nan nan nan nan nan nan nan nan nan nan nan nan nan nan nan nan nan nan nan nan nan 28 28 29 29 30 30 30 31 31 31
nan nan nan nan nan nan nan nan nan nan nan nan nan nan nan nan nan nan nan nan nan nan nan nan nan nan nan nan nan nan nan nan 30 29 30 30 31 32 31 33 33 33
nan nan nan nan nan nan nan nan nan nan nan nan nan nan nan nan nan nan nan nan nan nan nan nan nan nan nan nan nan nan nan nan nan nan nan 34 34 35 34 35 35 35
nan nan nan nan nan nan nan nan nan nan nan nan nan nan nan nan nan nan nan nan nan nan nan nan nan nan nan nan nan nan nan nan nan nan nan nan nan nan nan 37 42 nan
nan nan nan nan nan nan nan nan nan nan nan nan nan nan nan nan nan nan nan nan nan nan nan nan nan nan nan nan nan nan nan nan nan nan nan nan nan nan nan nan nan nan
nan nan nan nan nan nan nan nan nan nan nan nan nan nan nan nan nan nan nan nan nan nan nan nan nan nan nan nan nan nan nan nan nan nan nan nan nan nan nan nan nan nan
Wind_Direction
255 253 256 255 255 255 256 258 256 259 256 256 257 259 262 262 266 264 260 261 265 266 270 270 267 262 261 266 274 281 287 294 293 292 292 291 284 283 283 286 284 287
265 259 257 259 260 259 259 260 261 262 258 257 257 259 261 263 263 262 260 260 263 264 268 269 265 263 263 267 270 275 283 291 298 294 296 302 290 288 284 288 291 287
259 257 261 264 261 266 268 267 267 264 260 259 260 261 261 262 260 258 260 259 258 261 265 263 261 259 261 266 271 274 280 292 300 302 301 303 293 289 289 291 290 292
253 256 258 261 262 268 272 271 269 262 261 263 265 263 262 261 261 261 259 258 256 259 262 261 257 256 260 266 271 274 276 286 294 300 300 293 291 289 286 288 289 293
258 264 260 261 263 268 268 270 271 264 266 267 265 263 263 263 265 263 258 254 254 260 262 260 256 255 258 264 270 271 274 279 289 298 298 296 290 287 285 286 290 296
255 260 261 260 262 267 270 272 272 270 271 269 264 258 260 265 264 260 253 250 253 258 262 260 257 255 256 262 267 268 269 271 279 290 295 294 291 288 284 288 297 306
262 256 254 255 261 270 273 272 270 269 266 259 255 255 259 264 265 259 254 251 255 261 263 258 nan nan 255 261 266 270 266 nan nan 283 290 287 286 288 288 293 299 307
261 251 247 249 260 268 264 260 261 261 256 249 251 256 266 269 271 264 260 nan nan nan nan nan nan nan 256 260 266 269 269 nan nan nan nan nan 283 nan 287 290 291 299
255 247 245 250 255 257 254 252 258 257 247 243 247 258 266 269 269 269 nan nan nan nan nan nan nan nan nan 257 263 272 274 271 nan nan nan nan 283 nan nan 287 292 292
248 245 249 249 251 250 251 255 257 249 241 240 248 257 264 266 nan nan nan nan nan nan nan nan nan nan nan nan nan nan nan nan nan nan nan nan nan nan nan 285 289 292
249 249 251 247 238 244 253 256 254 246 239 242 246 255 261 nan nan nan nan nan nan nan nan nan nan nan nan nan nan nan nan nan nan nan nan nan nan nan nan nan 284 289
255 255 260 262 253 244 248 251 251 247 244 242 245 nan nan nan nan nan nan nan nan nan nan nan nan nan nan nan nan nan nan nan nan nan nan nan nan nan nan nan nan 284
250 258 255 252 248 243 240 246 248 246 247 245 nan nan nan nan nan nan nan nan nan nan nan nan nan nan nan nan nan nan nan nan nan nan nan nan nan nan nan nan nan 277
238 236 250 254 249 246 243 246 248 249 nan nan nan nan nan nan nan nan nan nan nan nan nan nan nan nan nan nan nan nan nan nan nan nan nan nan nan nan nan nan nan nan
248 252 249 249 247 243 244 248 251 nan nan nan nan nan nan nan nan nan nan nan nan nan nan nan nan nan nan nan nan nan nan nan nan nan nan nan nan nan nan nan nan nan
244 248 251 251 250 247 243 246 250 253 255 nan nan nan nan nan nan nan nan nan nan nan nan nan nan nan nan nan nan nan nan nan nan nan nan nan nan nan nan nan nan nan
246 252 nan nan nan nan 240 nan nan 248 250 248 247 246 246 246 nan nan nan nan nan 261 nan nan nan nan nan nan nan nan nan nan nan nan nan nan nan nan nan nan nan nan
nan nan nan nan nan nan nan nan nan nan nan nan nan nan nan 249 252 257 260 261 nan nan nan nan nan nan nan nan nan nan nan nan nan nan nan nan nan nan nan nan nan nan
nan nan nan nan nan nan nan nan nan nan nan nan nan nan nan nan 259 260 nan nan nan nan nan nan nan nan nan nan nan nan nan nan nan nan nan nan nan nan nan nan nan nan
nan nan nan nan nan nan nan nan nan nan nan nan nan nan nan nan nan nan nan nan nan nan nan nan nan nan nan nan nan nan nan 240 255 nan nan nan nan nan nan nan nan nan
nan nan nan nan nan nan nan nan nan nan nan nan nan nan nan nan nan nan nan nan nan nan nan nan nan nan nan nan nan nan nan nan 262 261 265 266 267 269 272 273 276 275
nan nan nan nan nan nan nan nan nan nan nan nan nan nan nan nan nan nan nan nan nan nan nan nan nan nan nan nan nan nan nan nan 264 264 264 267 270 273 275 278 278 277
nan nan nan nan nan nan nan nan nan nan nan nan nan nan nan nan nan nan nan nan nan nan nan nan nan nan nan nan nan nan nan nan nan nan nan 266 268 269 274 274 275 272
nan nan nan nan nan nan nan nan nan nan nan nan nan nan nan nan nan nan nan nan nan nan nan nan nan nan nan nan nan nan nan nan nan nan nan nan nan nan nan 273 272 nan
nan nan nan nan nan nan nan nan nan nan nan nan nan nan nan nan nan nan nan nan nan nan nan nan nan nan nan nan nan nan nan nan nan nan nan nan nan nan nan nan nan nan
nan nan nan nan nan nan nan nan nan nan nan nan nan nan nan nan nan nan nan nan nan nan nan nan nan nan nan nan nan nan nan nan nan nan nan nan nan nan nan nan nan nan